When you browse on this site, cookies collect data to enhance your experience and personalize the content and advertising you see.
Visit our Privacy Policy to learn more. By continuing to use the site, you agree to this use of cookies and data.

Hourly Weather Córdoba

Today, 14 August, Friday

Time Temperature Precipitation Wind Pressure Humidity
00:00 +9°C° 0 mm 3 mps 720 mmHg 34%
01:00 +9°C° 0 mm 3 mps 719 mmHg 35%
02:00 +9°C° 0 mm 3 mps 719 mmHg 35%
03:00 +8°C° 0 mm 2 mps 718 mmHg 36%
04:00 +8°C° 0 mm 2 mps 718 mmHg 37%
05:00 +7°C° 0 mm 2 mps 718 mmHg 38%
06:00 +8°C° 0 mm 2 mps 718 mmHg 38%
07:00 +10°C° 0 mm 1 mps 718 mmHg 38%
08:00 +10°C° 0 mm 1 mps 719 mmHg 39%
09:00 +13°C° 0 mm 1 mps 719 mmHg 34%
10:00 +16°C° 0 mm 2 mps 719 mmHg 30%
11:00 +19°C° 0 mm 2 mps 719 mmHg 25%
12:00 +20°C° 0 mm 3 mps 719 mmHg 23%
13:00 +21°C° 0 mm 3 mps 719 mmHg 21%
14:00 +22°C° 0 mm 3 mps 719 mmHg 18%
15:00 +22°C° 0 mm 4 mps 719 mmHg 19%
16:00 +21°C° 0 mm 4 mps 719 mmHg 19%
17:00 +20°C° 0 mm 5 mps 719 mmHg 19%
18:00 +17°C° 0 mm 5 mps 720 mmHg 22%
19:00 +15°C° 0 mm 4 mps 721 mmHg 24%
20:00 +13°C° 0 mm 4 mps 721 mmHg 27%
21:00 +12°C° 0 mm 4 mps 722 mmHg 31%
22:00 +11°C° 0 mm 4 mps 722 mmHg 35%
23:00 +10°C° 0 mm 3 mps 723 mmHg 39%

Tomorrow, 15 August, Saturday

Time Temperature Precipitation Wind Pressure Humidity
00:00 +9°C° 0 mm 3 mps 723 mmHg 40%
01:00 +8°C° 0 mm 2 mps 723 mmHg 41%
02:00 +9°C° 0 mm 1 mps 723 mmHg 42%
03:00 +9°C° 0 mm 1 mps 722 mmHg 42%
04:00 +8°C° 0 mm 1 mps 722 mmHg 42%
05:00 +8°C° 0 mm 1 mps 722 mmHg 42%
06:00 +9°C° 0 mm 1 mps 722 mmHg 39%
07:00 +9°C° 0 mm 1 mps 723 mmHg 37%
08:00 +9°C° 0 mm 0 mps 723 mmHg 35%
09:00 +12°C° 0 mm 1 mps 723 mmHg 30%
10:00 +14°C° 0 mm 2 mps 723 mmHg 24%
11:00 +16°C° 0 mm 2 mps 723 mmHg 19%
12:00 +17°C° 0 mm 2 mps 723 mmHg 18%
13:00 +18°C° 0 mm 3 mps 722 mmHg 17%
14:00 +19°C° 0 mm 3 mps 722 mmHg 15%
15:00 +19°C° 0 mm 3 mps 722 mmHg 16%
16:00 +18°C° 0 mm 3 mps 722 mmHg 16%
17:00 +18°C° 0 mm 3 mps 722 mmHg 17%
18:00 +15°C° 0 mm 2 mps 723 mmHg 20%
19:00 +13°C° 0 mm 2 mps 723 mmHg 24%
20:00 +10°C° 0 mm 1 mps 724 mmHg 27%
21:00 +10°C° 0 mm 1 mps 724 mmHg 29%
22:00 +9°C° 0 mm 1 mps 725 mmHg 30%
23:00 +8°C° 0 mm 1 mps 725 mmHg 31%

Day after tomorrow, 16 August, Sunday

Time Temperature Precipitation Wind Pressure Humidity
00:00 +8°C° 0 mm 1 mps 725 mmHg 33%
01:00 +7°C° 0 mm 1 mps 725 mmHg 34%
02:00 +7°C° 0 mm 1 mps 725 mmHg 35%
03:00 +6°C° 0 mm 1 mps 725 mmHg 36%
04:00 +6°C° 0 mm 1 mps 724 mmHg 37%
05:00 +6°C° 0 mm 1 mps 724 mmHg 38%
06:00 +7°C° 0 mm 1 mps 724 mmHg 38%
07:00 +7°C° 0 mm 1 mps 724 mmHg 37%
08:00 +7°C° 0 mm 2 mps 725 mmHg 36%
09:00 +10°C° 0 mm 3 mps 725 mmHg 32%
10:00 +13°C° 0 mm 3 mps 725 mmHg 28%
11:00 +17°C° 0 mm 4 mps 725 mmHg 24%
12:00 +18°C° 0 mm 4 mps 724 mmHg 23%
13:00 +20°C° 0 mm 4 mps 724 mmHg 22%
14:00 +21°C° 0 mm 4 mps 723 mmHg 21%
15:00 +20°C° 0 mm 5 mps 723 mmHg 23%
16:00 +19°C° 0 mm 5 mps 722 mmHg 24%
17:00 +19°C° 0 mm 5 mps 722 mmHg 26%
18:00 +17°C° 0 mm 4 mps 722 mmHg 31%
19:00 +14°C° 0 mm 3 mps 722 mmHg 35%
20:00 +12°C° 0 mm 2 mps 722 mmHg 40%
21:00 +12°C° 0 mm 2 mps 723 mmHg 40%
22:00 +12°C° 0 mm 2 mps 723 mmHg 41%
23:00 +12°C° 0 mm 2 mps 723 mmHg 42%

17 August, Monday

Time Temperature Precipitation Wind Pressure Humidity
00:00 +12°C° 0 mm 2 mps 723 mmHg 43%
01:00 +10°C° 0 mm 2 mps 723 mmHg 44%
02:00 +11°C° 0 mm 1 mps 723 mmHg 45%
03:00 +11°C° 0 mm 1 mps 723 mmHg 47%
04:00 +11°C° 0 mm 1 mps 723 mmHg 49%
05:00 +10°C° 0 mm 1 mps 723 mmHg 51%
06:00 +11°C° 0 mm 1 mps 723 mmHg 49%
07:00 +11°C° 0 mm 1 mps 723 mmHg 47%
08:00 +12°C° 0 mm 1 mps 723 mmHg 45%
09:00 +15°C° 0 mm 1 mps 723 mmHg 39%
10:00 +17°C° 0 mm 2 mps 723 mmHg 34%
11:00 +20°C° 0 mm 3 mps 723 mmHg 28%
12:00 +21°C° 0 mm 3 mps 723 mmHg 26%
13:00 +22°C° 0 mm 4 mps 722 mmHg 24%
14:00 +23°C° 0 mm 5 mps 721 mmHg 22%
15:00 +23°C° 0 mm 5 mps 720 mmHg 23%
16:00 +22°C° 0 mm 5 mps 720 mmHg 25%
17:00 +21°C° 0 mm 5 mps 719 mmHg 27%
18:00 +19°C° 0 mm 5 mps 719 mmHg 31%
19:00 +17°C° 0 mm 4 mps 719 mmHg 35%
20:00 +14°C° 0 mm 4 mps 719 mmHg 39%
21:00 +14°C° 0 mm 4 mps 719 mmHg 39%
22:00 +13°C° 0 mm 4 mps 719 mmHg 39%
23:00 +13°C° 0 mm 4 mps 718 mmHg 39%

18 August, Tuesday

Time Temperature Precipitation Wind Pressure Humidity
00:00 +12°C° 0 mm 4 mps 718 mmHg 39%
01:00 +12°C° 0 mm 3 mps 718 mmHg 39%
02:00 +12°C° 0 mm 3 mps 717 mmHg 39%
03:00 +12°C° 0 mm 3 mps 717 mmHg 40%
04:00 +12°C° 0 mm 2 mps 716 mmHg 40%
05:00 +12°C° 0 mm 2 mps 716 mmHg 41%
06:00 +12°C° 0 mm 2 mps 716 mmHg 39%
07:00 +13°C° 0 mm 1 mps 717 mmHg 37%
08:00 +14°C° 0 mm 1 mps 717 mmHg 35%
09:00 +14°C° 0 mm 4 mps 717 mmHg 34%
10:00 +15°C° 0 mm 6 mps 718 mmHg 33%
11:00 +17°C° 0 mm 8 mps 718 mmHg 32%
12:00 +17°C° 0 mm 8 mps 718 mmHg 29%
13:00 +17°C° 0 mm 8 mps 718 mmHg 25%
14:00 +17°C° 0 mm 7 mps 718 mmHg 22%
15:00 +16°C° 0 mm 7 mps 718 mmHg 23%
16:00 +15°C° 0 mm 7 mps 719 mmHg 25%
17:00 +14°C° 0 mm 7 mps 719 mmHg 26%
18:00 +11°C° 0 mm 6 mps 720 mmHg 28%
19:00 +10°C° 0 mm 6 mps 721 mmHg 30%
20:00 +8°C° 0 mm 5 mps 722 mmHg 32%
21:00 +7°C° 0 mm 5 mps 723 mmHg 30%
22:00 +7°C° 0 mm 5 mps 724 mmHg 28%
23:00 +6°C° 0 mm 5 mps 725 mmHg 26%

19 August, Wednesday

Time Temperature Precipitation Wind Pressure Humidity
00:00 +6°C° 0 mm 5 mps 725 mmHg 26%
01:00 +5°C° 0 mm 5 mps 726 mmHg 25%
02:00 +5°C° 0 mm 5 mps 726 mmHg 25%
03:00 +3°C° 0 mm 5 mps 726 mmHg 25%
04:00 +4°C° 0 mm 4 mps 727 mmHg 25%
05:00 +4°C° 0 mm 4 mps 727 mmHg 26%
06:00 +3°C° 0 mm 5 mps 728 mmHg 26%
07:00 +5°C° 0 mm 5 mps 728 mmHg 27%
08:00 +4°C° 0 mm 6 mps 729 mmHg 28%
09:00 +5°C° 0 mm 6 mps 730 mmHg 25%
10:00 +7°C° 0 mm 6 mps 730 mmHg 22%
11:00 +9°C° 0 mm 6 mps 730 mmHg 20%
12:00 +9°C° 0 mm 6 mps 730 mmHg 18%
13:00 +10°C° 0 mm 6 mps 730 mmHg 16%
14:00 +11°C° 0 mm 6 mps 729 mmHg 14%
15:00 +10°C° 0 mm 6 mps 729 mmHg 16%
16:00 +10°C° 0 mm 6 mps 729 mmHg 17%
17:00 +9°C° 0 mm 6 mps 729 mmHg 19%
18:00 +8°C° 0 mm 5 mps 730 mmHg 26%
19:00 +6°C° 0 mm 5 mps 731 mmHg 32%
20:00 +4°C° 0 mm 4 mps 731 mmHg 39%
21:00 +4°C° 0 mm 4 mps 732 mmHg 40%
22:00 +3°C° 0 mm 4 mps 733 mmHg 41%
23:00 +3°C° 0 mm 3 mps 733 mmHg 42%
Show more